Windom, MN

8:28 PM CDT on April 26, 2017 (GMT -0500)
Windom Municipal

Weather History for KMWM - July, 2013

Change the Weather History Date:

Saturday, July 20, 2013

  Actual Average Record
Temperature  
Mean Temperature 70 °F -  
Max Temperature 82 °F 83 °F 97 °F (1964)
Min Temperature 59 °F 60 °F 46 °F (1950)
Cooling Degree Days 6    
Growing Degree Days 20 (Base 50)    
Moisture  
Dew Point 60 °F    
Average Humidity 68    
Maximum Humidity 88    
Minimum Humidity 45    
Precipitation  
Precipitation 0.00 in - - ()
Sea Level Pressure  
Sea Level Pressure 29.95 in    
Wind  
Wind Speed 1 mph (NNW)    
Max Wind Speed 14 mph    
Max Gust Speed 18 mph    
Visibility 10 miles    
Events Rain    
Averages and records for this station are not official NWS values.
T = Trace of Precipitation, MM = Missing Value Source: NWS Daily Summary

Daily Weather History Graph

Daily Weather History Graph

Search for Another Location

Airport or City:

Trip Planner

Search our weather history database for the weather conditions in past years. The results will help you decide how hot, cold, wet, or windy it might be!

Date:

Astronomy

Jul. 20, 2013 Rise Set
Actual Time 5:56 AM CDT 8:56 PM CDT
Civil Twilight 5:22 AM CDT 9:30 PM CDT
Nautical Twilight 4:38 AM CDT 10:14 PM CDT
Astronomical Twilight 3:46 AM CDT 11:05 PM CDT
Moon 7:00 PM CDT (7/20) 3:37 AM CDT (7/20)
Length of Visible Light 16h 08m
Length of Day
14h 59m
Waxing Gibbous, 94% of the Moon is Illuminated
Jul 20
Waxing Gibbous
Jul 22
Full
Jul 29
Last Quarter
Aug 6
New
Aug 14
First Quarter

Hourly Weather History & Observations

Time (CDT) Temp. Heat Index Dew Point Humidity Pressure Visibility Wind Dir Wind Speed Gust Speed Precip Events Conditions
12:13 AM 66.2 °F - 60.8 °F 83% 29.96 in 10.0 mi Calm Calm - N/A   Clear
12:32 AM 66.2 °F - 59.0 °F 78% 29.96 in 10.0 mi Calm Calm - N/A   Clear
12:52 AM 66.2 °F - 59.0 °F 78% 29.96 in 10.0 mi Calm Calm - N/A   Clear
1:12 AM 66.2 °F - 60.8 °F 83% 29.96 in 10.0 mi Calm Calm - N/A   Clear
1:32 AM 64.4 °F - 60.8 °F 88% 29.96 in 10.0 mi Calm Calm - N/A   Clear
1:53 AM 64.4 °F - 59.0 °F 83% 29.96 in 10.0 mi Calm Calm - N/A   Clear
2:12 AM 64.4 °F - 60.8 °F 88% 29.95 in 10.0 mi Calm Calm - N/A   Clear
2:32 AM 64.4 °F - 59.0 °F 83% 29.95 in 10.0 mi Calm Calm - N/A   Clear
2:53 AM 62.6 °F - 57.2 °F 82% 29.93 in 10.0 mi Calm Calm - N/A   Clear
3:12 AM 62.6 °F - 59.0 °F 88% 29.93 in 10.0 mi Calm Calm - N/A   Clear
3:32 AM 62.6 °F - 57.2 °F 82% 29.94 in 10.0 mi Calm Calm - N/A   Clear
3:53 AM 62.6 °F - 57.2 °F 82% 29.94 in 10.0 mi Calm Calm - N/A   Clear
4:12 AM 62.6 °F - 57.2 °F 82% 29.94 in 10.0 mi Calm Calm - N/A   Clear
4:32 AM 60.8 °F - 57.2 °F 88% 29.94 in 10.0 mi Calm Calm - N/A   Clear
4:53 AM 59.0 °F - 55.4 °F 88% 29.94 in 10.0 mi Calm Calm - N/A   Clear
5:12 AM 60.8 °F - 57.2 °F 88% 29.94 in 10.0 mi Calm Calm - N/A   Clear
5:32 AM 62.6 °F - 57.2 °F 82% 29.94 in 10.0 mi Calm Calm - N/A   Clear
5:52 AM 60.8 °F - 55.4 °F 82% 29.95 in 10.0 mi Calm Calm - N/A   Clear
6:12 AM 60.8 °F - 57.2 °F 88% 29.96 in 10.0 mi Calm Calm - N/A   Clear
6:33 AM 64.4 °F - 59.0 °F 83% 29.97 in 10.0 mi Calm Calm - N/A   Clear
6:52 AM 64.4 °F - 60.8 °F 88% 29.97 in 10.0 mi Calm Calm - N/A   Clear
7:12 AM 66.2 °F - 60.8 °F 83% 29.97 in 10.0 mi Calm Calm - N/A   Scattered Clouds
7:33 AM 66.2 °F - 60.8 °F 83% 29.98 in 10.0 mi Calm Calm - N/A   Clear
7:52 AM 66.2 °F - 60.8 °F 83% 29.99 in 10.0 mi WNW 3.5 mph - N/A   Clear
8:12 AM 68.0 °F - 60.8 °F 78% 29.99 in 10.0 mi Calm Calm - N/A   Clear
8:33 AM 68.0 °F - 60.8 °F 78% 30.00 in 10.0 mi Calm Calm - N/A   Clear
8:52 AM 68.0 °F - 60.8 °F 78% 29.99 in 10.0 mi Calm Calm - N/A   Clear
9:12 AM 69.8 °F - 60.8 °F 73% 29.98 in 10.0 mi Calm Calm - N/A Rain Light Rain
9:32 AM 69.8 °F - 60.8 °F 73% 29.97 in 10.0 mi NW 10.4 mph - N/A   Clear
9:52 AM 69.8 °F - 60.8 °F 73% 29.96 in 10.0 mi Calm Calm - N/A   Clear
10:13 AM 71.6 °F - 60.8 °F 69% 29.96 in 10.0 mi Calm Calm - N/A   Clear
10:32 AM 73.4 °F - 60.8 °F 65% 29.97 in 10.0 mi WNW 3.5 mph - N/A   Clear
10:52 AM 75.2 °F - 60.8 °F 61% 29.97 in 10.0 mi WNW 8.1 mph - N/A   Clear
11:13 AM 75.2 °F - 60.8 °F 61% 29.97 in 10.0 mi NNW 11.5 mph - N/A   Clear
11:32 AM 75.2 °F - 62.6 °F 65% 29.98 in 10.0 mi North 11.5 mph - N/A   Clear
11:52 AM 75.2 °F - 62.6 °F 65% 29.98 in 10.0 mi NNW 9.2 mph - N/A   Clear
12:13 PM 78.8 °F - 60.8 °F 54% 29.98 in 10.0 mi NW 13.8 mph 18.4 mph N/A   Clear
12:32 PM 78.8 °F - 60.8 °F 54% 29.98 in 10.0 mi NNW 10.4 mph - N/A   Clear
12:52 PM 80.6 °F 81.5 °F 60.8 °F 51% 29.98 in 10.0 mi NNW 11.5 mph - N/A   Clear
1:13 PM 78.8 °F - 60.8 °F 54% 29.97 in 10.0 mi North 6.9 mph - N/A   Scattered Clouds
1:32 PM 80.6 °F 81.5 °F 60.8 °F 51% 29.96 in 10.0 mi North 9.2 mph - N/A   Scattered Clouds
1:52 PM 80.6 °F 81.5 °F 60.8 °F 51% 29.95 in 10.0 mi North 4.6 mph - N/A   Scattered Clouds
2:13 PM 80.6 °F 81.5 °F 60.8 °F 51% 29.95 in 10.0 mi Calm Calm - N/A   Scattered Clouds
2:32 PM 80.6 °F 81.5 °F 60.8 °F 51% 29.95 in 10.0 mi Calm Calm - N/A   Scattered Clouds
2:52 PM 82.4 °F 82.9 °F 60.8 °F 48% 29.94 in 10.0 mi Calm Calm - N/A   Scattered Clouds
3:13 PM 82.4 °F 82.5 °F 59.0 °F 45% 29.94 in 10.0 mi Calm Calm - N/A   Scattered Clouds
3:32 PM 80.6 °F 81.1 °F 59.0 °F 48% 29.94 in 10.0 mi Calm Calm - N/A   Scattered Clouds
3:52 PM 82.4 °F 82.5 °F 59.0 °F 45% 29.94 in 10.0 mi Calm Calm - N/A   Clear
4:13 PM 82.4 °F 82.9 °F 60.8 °F 48% 29.95 in 10.0 mi Calm Calm - N/A   Clear
4:32 PM 80.6 °F 81.1 °F 59.0 °F 48% 29.95 in 10.0 mi Calm Calm - N/A   Scattered Clouds
4:52 PM 80.6 °F 81.5 °F 60.8 °F 51% 29.94 in 10.0 mi Calm Calm - N/A   Mostly Cloudy
5:13 PM 80.6 °F 81.5 °F 60.8 °F 51% 29.94 in 10.0 mi Calm Calm - N/A   Overcast
5:32 PM 82.4 °F 82.9 °F 60.8 °F 48% 29.93 in 10.0 mi Calm Calm - N/A   Overcast
5:52 PM 80.6 °F 81.5 °F 60.8 °F 51% 29.93 in 10.0 mi Calm Calm - N/A   Mostly Cloudy
6:12 PM 80.6 °F 81.8 °F 62.6 °F 54% 29.92 in 10.0 mi Calm Calm - N/A   Overcast
6:32 PM 80.6 °F 81.5 °F 60.8 °F 51% 29.92 in 10.0 mi Calm Calm - N/A   Overcast
6:53 PM 80.6 °F 81.5 °F 60.8 °F 51% 29.91 in 10.0 mi Calm Calm - N/A   Mostly Cloudy
7:12 PM 80.6 °F 81.5 °F 60.8 °F 51% 29.92 in 10.0 mi Calm Calm - N/A   Mostly Cloudy
7:32 PM 80.6 °F 81.5 °F 60.8 °F 51% 29.92 in 10.0 mi SW 3.5 mph - N/A   Overcast
7:53 PM 78.8 °F - 60.8 °F 54% 29.92 in 10.0 mi WSW 3.5 mph - N/A   Mostly Cloudy
8:12 PM 78.8 °F - 60.8 °F 54% 29.92 in 10.0 mi Calm Calm - N/A   Mostly Cloudy
8:33 PM 77.0 °F - 62.6 °F 61% 29.92 in 10.0 mi Calm Calm - N/A   Overcast
8:52 PM 75.2 °F - 62.6 °F 65% 29.92 in 10.0 mi NE 3.5 mph - N/A   Scattered Clouds
9:12 PM 73.4 °F - 62.6 °F 69% 29.93 in 10.0 mi Calm Calm - N/A   Mostly Cloudy
9:33 PM 73.4 °F - 62.6 °F 69% 29.94 in 10.0 mi Calm Calm - N/A   Scattered Clouds
9:52 PM 73.4 °F - 62.6 °F 69% 29.95 in 10.0 mi Calm Calm - N/A   Clear
10:12 PM 71.6 °F - 62.6 °F 73% 29.95 in 10.0 mi Calm Calm - N/A   Clear
10:33 PM 71.6 °F - 62.6 °F 73% 29.95 in 10.0 mi Calm Calm - N/A   Clear
10:52 PM 69.8 °F - 62.6 °F 78% 29.95 in 10.0 mi Calm Calm - N/A   Clear
11:12 PM 68.0 °F - 62.6 °F 83% 29.95 in 10.0 mi Calm Calm - N/A   Clear
11:33 PM 68.0 °F - 62.6 °F 83% 29.96 in 10.0 mi Calm Calm - N/A   Clear
11:52 PM 68.0 °F - 62.6 °F 83% 29.95 in 10.0 mi Calm Calm - N/A   Clear